Weather History for VTSP - January, 2014

Change the Weather History Date:

Wednesday, January 22, 2014

  Actual Average Record
Temperature  
Mean Temperature 80 °F -  
Max Temperature 86 °F 90 °F 102 °F (1998)
Min Temperature 73 °F 75 °F 69 °F (2011)
Cooling Degree Days 14    
Growing Degree Days 30 (Base 50)    
Moisture  
Dew Point 64 °F    
Average Humidity 58    
Maximum Humidity 74    
Minimum Humidity 41    
Precipitation  
Precipitation 0.00 in 0.04 in - ()
Sea Level Pressure  
Sea Level Pressure 29.93 in    
Wind  
Wind Speed 10 mph ()    
Max Wind Speed 22 mph    
Max Gust Speed 25 mph    
Visibility 5.3 miles    
Events      
Averages and records for this station are not official NWS values.
T = Trace of Precipitation, MM = Missing Value Source: Averaged Metar Reports

Daily Weather History Graph

Daily Weather History Graph

Search for Another Location

Airport or City:

Trip Planner

Search our weather history database for the weather conditions in past years. The results will help you decide how hot, cold, wet, or windy it might be!

Date:

Astronomy

Jan. 22, 2014 Rise Set
Actual Time 6:46 AM ICT 6:30 PM ICT
Civil Twilight 6:24 AM ICT 6:52 PM ICT
Nautical Twilight 5:58 AM ICT 7:17 PM ICT
Astronomical Twilight 5:33 AM ICT 7:43 PM ICT
Moon 11:13 PM ICT (1/22) 10:42 AM ICT (1/22)
Length of Visible Light 12h 28m
Length of Day
11h 43m
Waning Gibbous, 70% of the Moon is Illuminated
Jan 22
Waning Gibbous
Jan 24
Last Quarter
Jan 31
New
Feb 7
First Quarter
Feb 15
Full

Hourly Weather History & Observations

Time (ICT) Temp. Heat Index Dew Point Humidity Pressure Visibility Wind Dir Wind Speed Gust Speed Precip Events Conditions
12:00 AM 75.2 °F - 66.2 °F 73% 29.98 in 6.2 mi ENE 9.2 mph - N/A   Partly Cloudy
12:30 AM 75.2 °F - 66.2 °F 73% 29.97 in 6.2 mi ENE 11.5 mph - N/A   Partly Cloudy
1:00 AM 76 °F - 69 °F 74% 29.93 in 6 mi ENE 5.8 mph - -   Scattered Clouds
3:00 AM 75.2 °F - 66.2 °F 73% 29.92 in 6.2 mi East 13.8 mph - N/A   Partly Cloudy
4:00 AM 75 °F - 67 °F 69% 29.88 in 6 mi ENE 5.8 mph - -   Scattered Clouds
4:30 AM 75.2 °F - 64.4 °F 69% 29.92 in 6.2 mi ENE 15.0 mph - N/A   Partly Cloudy
5:00 AM 75.2 °F - 64.4 °F 69% 29.92 in 6.2 mi East 15.0 mph - N/A   Partly Cloudy
6:00 AM 75.2 °F - 60.8 °F 61% 29.92 in 6.2 mi East 11.5 mph - N/A   Partly Cloudy
6:30 AM 75.2 °F - 62.6 °F 65% 29.92 in 6.2 mi North 15.0 mph - N/A   Partly Cloudy
7:00 AM 74 °F - 65 °F 67% 29.92 in 6 mi ENE 8.1 mph - -   Scattered Clouds
7:00 AM 75.2 °F - 64.4 °F 69% 29.95 in 6.2 mi ENE 13.8 mph - N/A   Scattered Clouds
7:30 AM 75.2 °F - 64.4 °F 69% 29.95 in 6.2 mi ENE 13.8 mph - N/A   Scattered Clouds
8:00 AM 75.2 °F - 64.4 °F 69% 29.95 in 6.2 mi ENE 13.8 mph - N/A   Scattered Clouds
8:30 AM 77.0 °F - 64.4 °F 65% 29.98 in 6.2 mi ENE 13.8 mph - N/A   Scattered Clouds
9:00 AM 78.8 °F - 64.4 °F 61% 29.98 in 5.6 mi ENE 13.8 mph - N/A   Mostly Cloudy
9:30 AM 80.6 °F 82.3 °F 64.4 °F 58% 29.98 in 5.6 mi ENE 18.4 mph - N/A   Mostly Cloudy
10:00 AM 82 °F - 66 °F 49% 29.95 in 6 mi ENE 9.2 mph - -   Haze
10:00 AM 80.6 °F 82.3 °F 64.4 °F 58% 29.98 in 5.6 mi ENE 12.7 mph - N/A   Mostly Cloudy
10:30 AM 82.4 °F 83.9 °F 64.4 °F 54% 29.98 in 5.6 mi NE 11.5 mph - N/A   Mostly Cloudy
11:00 AM 84.2 °F 85.0 °F 62.6 °F 48% 29.95 in 5.6 mi ENE 13.8 mph - N/A   Mostly Cloudy
11:30 AM 84.2 °F 85.0 °F 62.6 °F 48% 29.95 in 5.6 mi East 21.9 mph - N/A   Mostly Cloudy
12:00 PM 84.2 °F 85.0 °F 62.6 °F 48% 29.95 in 5.6 mi East 18.4 mph - N/A   Mostly Cloudy
12:30 PM 84.2 °F 85.0 °F 62.6 °F 48% 29.92 in 5.6 mi ENE 16.1 mph - N/A   Mostly Cloudy
1:00 PM 86 °F - 65 °F 41% 29.88 in 6 mi ENE 8.1 mph - -   Haze
1:00 PM 86.0 °F 86.6 °F 62.6 °F 45% 29.92 in 5.6 mi East 17.3 mph - N/A   Mostly Cloudy
1:30 PM 86.0 °F 87.3 °F 64.4 °F 48% 29.89 in 5.6 mi ENE 11.5 mph - N/A   Mostly Cloudy
2:00 PM 87.8 °F 88.5 °F 62.6 °F 43% 29.89 in 5.6 mi East 13.8 mph - N/A   Mostly Cloudy
2:30 PM 86.0 °F 87.3 °F 64.4 °F 48% 29.86 in 5.6 mi ENE 9.2 mph - N/A   Mostly Cloudy
3:00 PM 86.0 °F 87.3 °F 64.4 °F 48% 29.86 in 5.6 mi ENE 10.4 mph - N/A   Mostly Cloudy
3:30 PM 86.0 °F 87.3 °F 64.4 °F 48% 29.86 in 5.6 mi NE 8.1 mph - N/A   Mostly Cloudy
4:00 PM 86 °F - 66 °F 41% 29.83 in 4 mi ENE 5.8 mph - -   Haze
4:00 PM 84.2 °F 85.6 °F 64.4 °F 51% 29.86 in 4.3 mi NE 11.5 mph - N/A   Mostly Cloudy
4:30 PM 84.2 °F 85.6 °F 64.4 °F 51% 29.86 in 4.3 mi NE 9.2 mph - N/A   Mostly Cloudy
5:00 PM 84.2 °F 85.6 °F 64.4 °F 51% 29.86 in 4.3 mi NE 5.8 mph - N/A   Mostly Cloudy
5:30 PM 82.4 °F 83.4 °F 62.6 °F 51% 29.89 in 4.3 mi NE 6.9 mph - N/A   Mostly Cloudy
6:00 PM 82.4 °F 83.9 °F 64.4 °F 54% 29.89 in 4.3 mi ENE 6.9 mph - N/A   Mostly Cloudy
6:30 PM 78.8 °F - 62.6 °F 57% 29.92 in 4.3 mi NE 4.6 mph - N/A   Mostly Cloudy
7:00 PM 80 °F - 67 °F 57% 29.89 in 4 mi NE 4.6 mph - -   Mist
7:30 PM 78.8 °F - 62.6 °F 57% 29.92 in 4.3 mi ENE 10.4 mph - N/A   Mostly Cloudy
8:00 PM 77.0 °F - 62.6 °F 61% 29.95 in 4.3 mi ENE 8.1 mph - N/A   Mostly Cloudy
8:30 PM 77.0 °F - 62.6 °F 61% 29.98 in 4.3 mi ENE 9.2 mph - N/A   Mostly Cloudy
9:00 PM 75.2 °F - 62.6 °F 65% 29.98 in 4.3 mi ENE 8.1 mph - N/A   Mostly Cloudy
9:30 PM 75.2 °F - 62.6 °F 65% 29.98 in 4.3 mi ENE 5.8 mph - N/A   Mostly Cloudy
10:00 PM 76 °F - 63 °F 56% 29.95 in 4 mi East 11.5 mph - -   Haze
10:00 PM 75.2 °F - 62.6 °F 65% 30.01 in 4.3 mi ENE 6.9 mph - N/A   Mostly Cloudy
10:30 PM 75.2 °F - 60.8 °F 61% 30.01 in 4.3 mi ENE 8.1 mph - N/A   Mostly Cloudy
11:00 PM 73.4 °F - 62.6 °F 69% 29.98 in 4.3 mi ENE 11.5 mph 25.3 mph N/A   Mostly Cloudy
11:30 PM 73.4 °F - 60.8 °F 65% 29.98 in 4.3 mi ENE 12.7 mph - N/A   Mostly Cloudy